Alexandria, Egypt

2:23 PM EET on June 24, 2017 (GMT +0200)
Alexandria

Weather History for HEAX - March, 2012

Change the Weather History Date:

Tuesday, March 6, 2012

  Actual Average Record
Temperature  
Mean Temperature 56 °F -  
Max Temperature 66 °F 68 °F 84 °F (2005)
Min Temperature 45 °F 52 °F 46 °F (2012)
Degree Days  
Heating Degree Days 10    
Growing Degree Days 6 (Base 50)    
Moisture  
Dew Point 50 °F    
Average Humidity 78    
Maximum Humidity 94    
Minimum Humidity 32    
Precipitation  
Precipitation 0.00 in 0.01 in - ()
Sea Level Pressure  
Sea Level Pressure 30.12 in    
Wind  
Wind Speed 3 mph ()    
Max Wind Speed 10 mph    
Max Gust Speed -    
Visibility 3.9 miles    
Events      
Averages and records for this station are not official NWS values.
T = Trace of Precipitation, MM = Missing Value Source: Averaged Metar Reports

Daily Weather History Graph

Daily Weather History Graph

Search for Another Location

Airport or City:

Trip Planner

Search our weather history database for the weather conditions in past years. The results will help you decide how hot, cold, wet, or windy it might be!

Date:

Astronomy

Mar. 06, 2012 Rise Set
Actual Time 6:20 AM EET 6:02 PM EET
Civil Twilight 5:56 AM EET 6:26 PM EET
Nautical Twilight 5:28 AM EET 6:54 PM EET
Astronomical Twilight 5:00 AM EET 7:22 PM EET
Moon 4:10 PM EET (3/6) 4:38 AM EET (3/6)
Length of Visible Light 12h 29m
Length of Day
11h 41m
Waxing Gibbous, 95% of the Moon is Illuminated
Mar 6
Waxing Gibbous
Mar 8
Full
Mar 15
Last Quarter
Mar 22
New
Mar 30
First Quarter

Hourly Weather History & Observations

Time (EET) Temp. Dew Point Humidity Pressure Visibility Wind Dir Wind Speed Gust Speed Precip Events Conditions
12:00 AM 55.4 °F 51.8 °F 88% 30.09 in - East 2.3 mph - N/A   Clear
1:00 AM 53.6 °F 51.8 °F 94% 30.09 in - East 3.5 mph - N/A   Clear
2:00 AM 53 °F 49 °F 83% 30.10 in 6 mi Calm Calm - -  
2:00 AM 53.6 °F 50.0 °F 88% 30.09 in - Calm Calm - N/A   Clear
3:00 AM 51.8 °F 50.0 °F 94% 30.09 in - Calm Calm - N/A   Clear
4:00 AM 51.8 °F 50.0 °F 94% 30.09 in - Calm Calm - N/A   Clear
5:00 AM 48.2 °F 46.4 °F 93% 30.06 in 3.7 mi Calm Calm - N/A   Unknown
6:00 AM 46.4 °F 44.6 °F 93% 30.06 in 3.7 mi Calm Calm - N/A   Unknown
7:00 AM 46.4 °F 44.6 °F 93% 30.09 in 3.7 mi Calm Calm - N/A   Unknown
8:00 AM 53 °F 47 °F 75% 30.11 in 4 mi Calm Calm - -   Mist
8:00 AM 51.8 °F 48.2 °F 88% 30.09 in 3.7 mi Calm Calm - N/A   Unknown
9:00 AM 57.2 °F 48.2 °F 72% 30.12 in 3.7 mi Calm Calm - N/A   Unknown
10:00 AM 64.4 °F 33.8 °F 32% 30.12 in 3.7 mi SSW 3.5 mph - N/A   Unknown
11:00 AM 66.2 °F 50.0 °F 56% 30.12 in 3.7 mi WSW 2.3 mph - N/A   Unknown
12:00 PM 66.2 °F 50.0 °F 56% 30.12 in - NW 6.9 mph - N/A   Clear
1:00 PM 66.2 °F 51.8 °F 60% 30.12 in 3.7 mi NNW 6.9 mph - N/A   Unknown
2:00 PM 66 °F 54 °F 55% 30.12 in 4 mi NW 10.4 mph - -   Haze
2:00 PM 66.2 °F 50.0 °F 56% 30.12 in 3.7 mi WSW 2.3 mph - N/A   Unknown
3:00 PM 64.4 °F 55.4 °F 73% 30.12 in 3.7 mi NNW 10.4 mph - N/A   Unknown
4:00 PM 64.4 °F 55.4 °F 73% 30.12 in 3.7 mi NNW 9.2 mph - N/A   Unknown
5:00 PM 64.4 °F 55.4 °F 73% 30.15 in 3.7 mi NNW 9.2 mph - N/A   Partly Cloudy
6:00 PM 60.8 °F 55.4 °F 82% 30.12 in - NNW 9.2 mph - N/A   Clear
7:00 PM 60.8 °F 55.4 °F 82% 30.15 in - North 6.9 mph - N/A   Clear
8:00 PM 59.0 °F 55.4 °F 88% 30.18 in - North 4.6 mph - N/A   Clear
9:00 PM 57.2 °F 53.6 °F 88% 30.18 in - North 3.5 mph - N/A   Clear
10:00 PM 57.2 °F 53.6 °F 88% 30.18 in - North 3.5 mph - N/A   Clear
11:00 PM 57.2 °F 51.8 °F 82% 30.18 in - North 2.3 mph - N/A   Clear